Time,TemperatureF,DewpointF,PressureIn,WindDirection,WindDirectionDegrees,WindSpeedMPH,WindSpeedGustMPH,Humidity,HourlyPrecipIn,Conditions,Clouds,dailyrainin,SoftwareType,DateUTC
2013-06-05 00:00:00,78.8,-16.6,17.72,SSW,213,0.0,0.0,2,0.00,,---,0.00,VWS V13.01,2013-06-05 07:00:00,
2013-06-05 00:05:00,78.3,-16.9,17.72,SSW,213,0.0,0.0,2,0.00,,---,0.00,VWS V13.01,2013-06-05 07:05:00,
2013-06-05 00:10:00,77.9,-17.1,17.72,SSW,213,0.0,0.0,2,0.00,,---,0.00,VWS V13.01,2013-06-05 07:10:00,
2013-06-05 00:15:00,77.7,-17.3,17.72,SSW,213,0.0,0.0,2,0.00,,---,0.00,VWS V13.01,2013-06-05 07:15:00,
2013-06-05 00:21:00,77.4,-17.5,17.72,SSW,213,0.0,0.0,2,0.00,,---,0.00,VWS V13.01,2013-06-05 07:21:00,
2013-06-05 00:26:00,77.0,-17.7,17.72,SSW,213,0.0,0.0,2,0.00,,---,0.00,VWS V13.01,2013-06-05 07:26:00,
2013-06-05 00:32:00,76.6,-18.0,17.72,SSW,213,0.0,0.0,2,0.00,,---,0.00,VWS V13.01,2013-06-05 07:32:00,
2013-06-05 00:37:00,76.5,-18.1,17.72,SSW,213,0.0,0.0,2,0.00,,---,0.00,VWS V13.01,2013-06-05 07:37:00,
2013-06-05 00:42:00,76.3,-18.2,17.72,SSW,213,0.0,0.0,2,0.00,,---,0.00,VWS V13.01,2013-06-05 07:42:00,
2013-06-05 00:47:00,76.1,-18.3,17.72,SSW,213,0.0,0.0,2,0.00,,---,0.00,VWS V13.01,2013-06-05 07:47:00,
2013-06-05 00:52:00,76.1,-18.3,17.72,SSW,213,0.0,0.0,2,0.00,,---,0.00,VWS V13.01,2013-06-05 07:52:00,
2013-06-05 00:58:00,75.9,-18.4,17.72,SSW,213,0.0,0.0,2,0.00,,---,0.00,VWS V13.01,2013-06-05 07:58:00,
2013-06-05 01:03:00,75.6,-18.6,17.72,SSW,213,0.0,0.0,2,0.00,,---,0.00,VWS V13.01,2013-06-05 08:03:00,
2013-06-05 01:08:00,75.4,-18.8,17.72,South,189,0.0,0.0,2,0.00,,---,0.00,VWS V13.01,2013-06-05 08:08:00,
2013-06-05 01:13:00,75.2,-18.9,17.72,South,189,0.0,0.0,2,0.00,,---,0.00,VWS V13.01,2013-06-05 08:13:00,
2013-06-05 01:18:00,74.7,-19.2,17.72,South,189,0.0,0.0,2,0.00,,---,0.00,VWS V13.01,2013-06-05 08:18:00,
2013-06-05 01:23:00,74.5,-19.3,17.72,South,189,0.0,0.0,2,0.00,,---,0.00,VWS V13.01,2013-06-05 08:23:00,
2013-06-05 01:29:00,74.1,-19.6,17.72,South,189,0.0,0.0,2,0.00,,---,0.00,VWS V13.01,2013-06-05 08:29:00,
2013-06-05 01:34:00,73.8,-19.8,17.72,South,189,0.0,0.0,2,0.00,,---,0.00,VWS V13.01,2013-06-05 08:34:00,
2013-06-05 01:39:00,73.6,-19.9,17.72,South,189,0.0,0.0,2,0.00,,---,0.00,VWS V13.01,2013-06-05 08:39:00,
2013-06-05 01:45:00,73.2,-12.2,17.72,South,189,0.0,0.0,3,0.00,,---,0.00,VWS V13.01,2013-06-05 08:45:00,
2013-06-05 01:51:00,72.9,-12.5,17.72,South,189,0.0,0.0,3,0.00,,---,0.00,VWS V13.01,2013-06-05 08:51:00,
2013-06-05 01:56:00,72.5,-12.7,17.72,South,189,0.0,0.0,3,0.00,,---,0.00,VWS V13.01,2013-06-05 08:56:00,
2013-06-05 02:01:00,72.5,-12.7,17.72,South,189,0.0,0.0,3,0.00,,---,0.00,VWS V13.01,2013-06-05 09:01:00,
2013-06-05 02:07:00,72.1,-12.9,17.72,South,189,0.0,0.0,3,0.00,,---,0.00,VWS V13.01,2013-06-05 09:07:00,
2013-06-05 02:12:00,72.0,-13.1,17.72,South,189,0.0,0.0,3,0.00,,---,0.00,VWS V13.01,2013-06-05 09:12:00,
2013-06-05 02:17:00,71.6,-13.3,17.72,South,189,0.0,0.0,3,0.00,,---,0.00,VWS V13.01,2013-06-05 09:17:00,
2013-06-05 02:23:00,71.4,-13.4,17.72,South,189,0.0,0.0,3,0.00,,---,0.00,VWS V13.01,2013-06-05 09:23:00,
2013-06-05 02:28:00,71.4,-13.4,17.72,South,189,0.0,0.0,3,0.00,,---,0.00,VWS V13.01,2013-06-05 09:28:00,
2013-06-05 02:33:00,71.1,-13.7,17.72,South,189,0.0,0.0,3,0.00,,---,0.00,VWS V13.01,2013-06-05 09:33:00,
2013-06-05 02:39:00,71.1,-13.7,17.72,South,189,0.0,0.0,3,0.00,,---,0.00,VWS V13.01,2013-06-05 09:39:00,
2013-06-05 02:44:00,70.9,-13.8,17.72,South,189,0.0,0.0,3,0.00,,---,0.00,VWS V13.01,2013-06-05 09:44:00,
2013-06-05 02:49:00,70.7,-13.9,17.72,South,189,0.0,0.0,3,0.00,,---,0.00,VWS V13.01,2013-06-05 09:49:00,
2013-06-05 02:54:00,70.7,-8.1,17.72,South,189,0.0,0.0,4,0.00,,---,0.00,VWS V13.01,2013-06-05 09:54:00,
2013-06-05 03:00:00,70.9,-13.8,17.72,South,189,0.0,0.0,3,0.00,,---,0.00,VWS V13.01,2013-06-05 10:00:00,
2013-06-05 03:05:00,70.9,-13.8,17.72,South,189,0.0,0.0,3,0.00,,---,0.00,VWS V13.01,2013-06-05 10:05:00,
2013-06-05 03:10:00,70.9,-13.8,17.72,South,189,0.0,0.0,3,0.00,,---,0.00,VWS V13.01,2013-06-05 10:10:00,
2013-06-05 03:16:00,70.7,-13.9,17.72,South,189,0.0,0.0,3,0.00,,---,0.00,VWS V13.01,2013-06-05 10:16:00,
2013-06-05 03:21:00,70.7,-13.9,17.72,ESE,105,0.0,4.9,3,0.00,,---,0.00,VWS V13.01,2013-06-05 10:21:00,
2013-06-05 03:27:00,70.7,-13.9,17.72,ESE,105,0.0,3.1,3,0.00,,---,0.00,VWS V13.01,2013-06-05 10:27:00,
2013-06-05 03:32:00,70.7,-8.1,17.72,ESE,105,0.0,0.0,4,0.00,,---,0.00,VWS V13.01,2013-06-05 10:32:00,
2013-06-05 03:37:00,70.7,-8.1,17.72,ESE,105,0.0,0.0,4,0.00,,---,0.00,VWS V13.01,2013-06-05 10:37:00,
2013-06-05 03:42:00,70.7,-8.1,17.72,ESE,105,0.0,0.0,4,0.00,,---,0.00,VWS V13.01,2013-06-05 10:42:00,
2013-06-05 03:47:00,70.3,-8.4,17.72,ESE,105,0.0,0.0,4,0.00,,---,0.00,VWS V13.01,2013-06-05 10:47:00,
2013-06-05 03:53:00,70.3,3.4,17.72,ESE,105,0.0,0.0,7,0.00,,---,0.00,VWS V13.01,2013-06-05 10:53:00,
2013-06-05 03:58:00,70.2,3.2,17.72,ESE,105,0.0,0.0,7,0.00,,---,0.00,VWS V13.01,2013-06-05 10:58:00,
2013-06-05 04:03:00,70.0,3.1,17.72,ESE,105,0.0,0.0,7,0.00,,---,0.00,VWS V13.01,2013-06-05 11:03:00,
2013-06-05 04:08:00,70.0,3.1,17.72,ESE,105,0.0,0.0,7,0.00,,---,0.00,VWS V13.01,2013-06-05 11:08:00,
2013-06-05 04:13:00,70.0,3.1,17.72,ESE,105,0.0,0.0,7,0.00,,---,0.00,VWS V13.01,2013-06-05 11:13:00,
2013-06-05 04:18:00,70.0,3.1,17.72,ESE,105,0.0,0.0,7,0.00,,---,0.00,VWS V13.01,2013-06-05 11:18:00,
2013-06-05 04:24:00,70.0,3.1,17.72,ESE,105,0.0,0.0,7,0.00,,---,0.00,VWS V13.01,2013-06-05 11:24:00,
2013-06-05 04:29:00,69.6,2.8,17.72,ESE,105,0.0,0.0,7,0.00,,---,0.00,VWS V13.01,2013-06-05 11:29:00,
2013-06-05 04:34:00,69.3,2.6,17.72,ESE,105,0.0,0.0,7,0.00,,---,0.00,VWS V13.01,2013-06-05 11:34:00,
2013-06-05 04:39:00,68.9,10.1,17.72,ESE,105,0.0,0.0,10,0.00,,---,0.00,VWS V13.01,2013-06-05 11:39:00,
2013-06-05 04:44:00,68.5,9.8,17.72,ESE,105,0.0,0.0,10,0.00,,---,0.00,VWS V13.01,2013-06-05 11:44:00,
2013-06-05 04:50:00,68.4,9.7,17.72,ESE,105,0.0,0.0,10,0.00,,---,0.00,VWS V13.01,2013-06-05 11:50:00,
2013-06-05 04:55:00,68.0,9.4,17.72,ESE,105,0.0,0.0,10,0.00,,---,0.00,VWS V13.01,2013-06-05 11:55:00,
2013-06-05 05:00:00,67.8,9.3,17.72,ESE,105,0.0,0.0,10,0.00,,---,0.00,VWS V13.01,2013-06-05 12:00:00,
2013-06-05 05:06:00,67.6,9.1,17.72,ESE,105,0.0,0.0,10,0.00,,---,0.00,VWS V13.01,2013-06-05 12:06:00,
2013-06-05 05:11:00,67.5,13.1,17.72,ESE,105,0.0,0.0,12,0.00,,---,0.00,VWS V13.01,2013-06-05 12:11:00,
2013-06-05 05:16:00,67.3,13.0,17.72,ESE,105,0.0,0.0,12,0.00,,---,0.00,VWS V13.01,2013-06-05 12:16:00,
2013-06-05 05:22:00,67.3,18.1,17.72,ESE,105,0.0,0.0,15,0.00,,---,0.00,VWS V13.01,2013-06-05 12:22:00,
2013-06-05 05:27:00,67.1,17.9,17.72,ESE,105,0.0,0.0,15,0.00,,---,0.00,VWS V13.01,2013-06-05 12:27:00,
2013-06-05 05:32:00,67.1,17.9,17.72,ESE,105,0.0,0.0,15,0.00,,---,0.00,VWS V13.01,2013-06-05 12:32:00,
2013-06-05 05:38:00,66.9,17.8,17.72,ESE,105,0.0,0.0,15,0.00,,---,0.00,VWS V13.01,2013-06-05 12:38:00,
2013-06-05 05:43:00,67.1,20.9,17.72,ESE,105,0.0,0.0,17,0.00,,---,0.00,VWS V13.01,2013-06-05 12:43:00,
2013-06-05 05:48:00,67.5,27.3,17.72,ESE,105,0.0,0.0,22,0.00,,---,0.00,VWS V13.01,2013-06-05 12:48:00,
2013-06-05 05:53:00,67.6,27.5,17.72,ESE,105,0.0,0.0,22,0.00,,---,0.00,VWS V13.01,2013-06-05 12:53:00,
2013-06-05 05:58:00,67.8,27.6,17.72,ESE,105,0.0,0.0,22,0.00,,---,0.00,VWS V13.01,2013-06-05 12:58:00,
2013-06-05 06:03:00,68.2,27.9,17.72,ESE,105,0.0,0.0,22,0.00,,---,0.00,VWS V13.01,2013-06-05 13:03:00,
2013-06-05 06:08:00,68.5,28.2,17.72,ESE,105,0.0,0.0,22,0.00,,---,0.00,VWS V13.01,2013-06-05 13:08:00,
2013-06-05 06:13:00,68.9,28.5,17.72,ESE,105,0.0,0.0,22,0.00,,---,0.00,VWS V13.01,2013-06-05 13:13:00,
2013-06-05 06:18:00,69.3,28.8,17.72,ESE,105,0.0,0.0,22,0.00,,---,0.00,VWS V13.01,2013-06-05 13:18:00,
2013-06-05 06:23:00,69.8,29.3,17.72,ESE,105,0.0,0.0,22,0.00,,---,0.00,VWS V13.01,2013-06-05 13:23:00,
2013-06-05 06:28:00,70.2,29.6,17.72,ESE,105,0.0,0.0,22,0.00,,---,0.00,VWS V13.01,2013-06-05 13:28:00,
2013-06-05 06:33:00,70.7,30.0,17.72,ESE,105,0.0,0.0,22,0.00,,---,0.00,VWS V13.01,2013-06-05 13:33:00,
2013-06-05 06:38:00,71.2,26.9,17.72,ESE,105,0.0,0.0,19,0.00,,---,0.00,VWS V13.01,2013-06-05 13:38:00,
2013-06-05 06:44:00,72.0,29.9,17.72,ESE,105,0.0,0.0,21,0.00,,---,0.00,VWS V13.01,2013-06-05 13:44:00,
2013-06-05 06:49:00,72.3,23.6,17.72,ESE,105,0.0,0.0,16,0.00,,---,0.00,VWS V13.01,2013-06-05 13:49:00,
2013-06-05 06:54:00,72.7,23.9,17.72,ESE,105,0.0,0.0,16,0.00,,---,0.00,VWS V13.01,2013-06-05 13:54:00,
2013-06-05 06:59:00,73.2,24.4,17.72,ESE,105,0.0,0.0,16,0.00,,---,0.00,VWS V13.01,2013-06-05 13:59:00,
2013-06-05 07:04:00,73.8,27.6,17.72,ESE,105,0.0,0.0,18,0.00,,---,0.00,VWS V13.01,2013-06-05 14:04:00,
2013-06-05 07:10:00,74.7,20.6,17.72,ESE,105,0.0,0.0,13,0.00,,---,0.00,VWS V13.01,2013-06-05 14:10:00,
2013-06-05 07:15:00,75.2,21.0,17.72,ESE,105,0.0,0.0,13,0.00,,---,0.00,VWS V13.01,2013-06-05 14:15:00,
2013-06-05 07:20:00,76.1,21.7,17.72,ESE,105,0.0,0.0,13,0.00,,---,0.00,VWS V13.01,2013-06-05 14:20:00,
2013-06-05 07:26:00,77.2,22.6,17.72,ESE,105,0.0,0.0,13,0.00,,---,0.00,VWS V13.01,2013-06-05 14:26:00,
2013-06-05 07:31:00,78.1,12.0,17.72,East,100,0.0,0.0,8,0.00,,---,0.00,VWS V13.01,2013-06-05 14:31:00,
2013-06-05 07:36:00,79.0,9.7,17.72,East,100,0.0,0.0,7,0.00,,---,0.00,VWS V13.01,2013-06-05 14:36:00,
2013-06-05 07:41:00,79.7,2.8,17.72,East,95,0.0,0.0,5,0.00,,---,0.00,VWS V13.01,2013-06-05 14:41:00,
2013-06-05 07:46:00,80.4,3.4,17.72,NNE,29,0.0,0.0,5,0.00,,---,0.00,VWS V13.01,2013-06-05 14:46:00,
2013-06-05 07:52:00,81.1,-15.1,17.72,NE,41,0.0,0.0,2,0.00,,---,0.00,VWS V13.01,2013-06-05 14:52:00,
2013-06-05 07:57:00,81.7,-14.7,17.72,NNE,27,0.0,0.0,2,0.00,,---,0.00,VWS V13.01,2013-06-05 14:57:00,
2013-06-05 08:02:00,82.2,-14.4,17.72,North,2,0.0,0.0,2,0.00,,---,0.00,VWS V13.01,2013-06-05 15:02:00,
2013-06-05 08:08:00,82.4,-14.2,17.72,North,357,0.0,0.0,2,0.00,,---,0.00,VWS V13.01,2013-06-05 15:08:00,
2013-06-05 08:13:00,82.8,-14.0,17.72,North,357,0.0,0.0,2,0.00,,---,0.00,VWS V13.01,2013-06-05 15:13:00,
2013-06-05 08:18:00,83.5,-13.6,17.72,North,353,3.1,4.0,2,0.00,,---,0.00,VWS V13.01,2013-06-05 15:18:00,
2013-06-05 08:23:00,84.0,-13.2,17.72,North,352,0.0,0.0,2,0.00,,---,0.00,VWS V13.01,2013-06-05 15:23:00,
2013-06-05 08:28:00,84.2,-13.1,17.72,North,351,0.0,0.0,2,0.00,,---,0.00,VWS V13.01,2013-06-05 15:28:00,
2013-06-05 08:34:00,84.9,-12.6,17.72,North,351,0.0,0.0,2,0.00,,---,0.00,VWS V13.01,2013-06-05 15:34:00,
2013-06-05 08:39:00,85.3,-12.4,17.72,North,351,0.0,0.0,2,0.00,,---,0.00,VWS V13.01,2013-06-05 15:39:00,
2013-06-05 08:44:00,85.8,-12.1,17.72,North,349,0.0,0.0,2,0.00,,---,0.00,VWS V13.01,2013-06-05 15:44:00,
2013-06-05 08:49:00,86.0,-11.9,17.72,WNW,298,0.0,4.0,2,0.00,,---,0.00,VWS V13.01,2013-06-05 15:49:00,
2013-06-05 08:54:00,85.8,-12.1,17.72,WNW,299,0.0,0.0,2,0.00,,---,0.00,VWS V13.01,2013-06-05 15:54:00,
2013-06-05 08:59:00,86.2,-11.8,17.72,WNW,300,0.0,0.0,2,0.00,,---,0.00,VWS V13.01,2013-06-05 15:59:00,
2013-06-05 09:04:00,86.7,-11.5,17.72,WNW,301,0.0,0.0,2,0.00,,---,0.00,VWS V13.01,2013-06-05 16:04:00,
2013-06-05 09:09:00,87.6,-10.9,17.72,SW,236,0.0,3.6,2,0.00,,---,0.00,VWS V13.01,2013-06-05 16:09:00,
2013-06-05 09:14:00,88.2,-10.6,17.72,SW,236,0.0,0.0,2,0.00,,---,0.00,VWS V13.01,2013-06-05 16:14:00,
2013-06-05 09:20:00,89.1,-10.0,17.72,SW,235,0.0,0.0,2,0.00,,---,0.00,VWS V13.01,2013-06-05 16:20:00,
2013-06-05 09:25:00,89.2,-9.9,17.72,WSW,247,6.3,6.3,2,0.00,,---,0.00,VWS V13.01,2013-06-05 16:25:00,
2013-06-05 09:30:00,89.4,-9.8,17.72,West,273,0.0,0.0,2,0.00,,---,0.00,VWS V13.01,2013-06-05 16:30:00,
2013-06-05 09:35:00,90.0,-9.4,17.72,WNW,293,0.0,0.0,2,0.00,,---,0.00,VWS V13.01,2013-06-05 16:35:00,
2013-06-05 09:40:00,90.5,-9.1,17.72,WNW,293,0.0,0.0,2,0.00,,---,0.00,VWS V13.01,2013-06-05 16:40:00,
2013-06-05 09:45:00,91.0,-8.7,17.72,West,280,4.0,5.4,2,0.00,,---,0.00,VWS V13.01,2013-06-05 16:45:00,
2013-06-05 09:50:00,91.6,-8.4,17.72,SSW,201,0.0,0.0,2,0.00,,---,0.00,VWS V13.01,2013-06-05 16:50:00,
2013-06-05 09:55:00,91.9,-8.2,17.72,SW,232,5.4,6.3,2,0.00,,---,0.00,VWS V13.01,2013-06-05 16:55:00,
2013-06-05 10:00:00,91.9,-8.2,17.72,NW,323,3.1,6.3,2,0.00,,---,0.00,VWS V13.01,2013-06-05 17:00:00,
2013-06-05 10:05:00,91.9,-8.2,17.72,SSW,210,0.0,7.6,2,0.00,,---,0.00,VWS V13.01,2013-06-05 17:05:00,
2013-06-05 10:10:00,92.7,-7.7,17.72,SW,219,3.1,7.6,2,0.00,,---,0.00,VWS V13.01,2013-06-05 17:10:00,
2013-06-05 10:15:00,92.8,-7.6,17.72,WSW,253,0.0,5.4,2,0.00,,---,0.00,VWS V13.01,2013-06-05 17:15:00,
2013-06-05 10:20:00,92.8,-7.6,17.72,West,281,3.1,5.8,2,0.00,,---,0.00,VWS V13.01,2013-06-05 17:20:00,
2013-06-05 10:25:00,92.7,-7.7,17.72,NW,317,0.0,0.0,2,0.00,,---,0.00,VWS V13.01,2013-06-05 17:25:00,
2013-06-05 10:30:00,92.7,-7.7,17.72,NW,311,4.0,5.4,2,0.00,,---,0.00,VWS V13.01,2013-06-05 17:30:00,
2013-06-05 10:35:00,92.7,-7.7,17.72,South,183,4.9,4.9,2,0.00,,---,0.00,VWS V13.01,2013-06-05 17:35:00,
2013-06-05 10:40:00,94.3,-6.7,17.72,SSW,204,5.4,5.4,2,0.00,,---,0.00,VWS V13.01,2013-06-05 17:40:00,
2013-06-05 10:45:00,95.4,-6.0,17.72,SE,136,3.1,4.0,2,0.00,,---,0.00,VWS V13.01,2013-06-05 17:45:00,
2013-06-05 10:50:00,96.1,-5.5,17.72,South,183,4.0,6.3,2,0.00,,---,0.00,VWS V13.01,2013-06-05 17:50:00,
2013-06-05 10:55:00,96.1,-5.5,17.72,WNW,285,5.8,6.3,2,0.00,,---,0.00,VWS V13.01,2013-06-05 17:55:00,
2013-06-05 11:00:00,95.4,-6.0,17.72,WSW,237,0.0,3.1,2,0.00,,---,0.00,VWS V13.01,2013-06-05 18:00:00,
2013-06-05 11:05:00,95.4,-6.0,17.72,WSW,238,0.0,0.0,2,0.00,,---,0.00,VWS V13.01,2013-06-05 18:05:00,
2013-06-05 11:10:00,96.1,-5.5,17.72,North,349,0.0,5.4,2,0.00,,---,0.00,VWS V13.01,2013-06-05 18:10:00,
2013-06-05 11:15:00,96.6,-5.2,17.72,SW,224,2.7,8.1,2,0.00,,---,0.00,VWS V13.01,2013-06-05 18:15:00,
2013-06-05 11:20:00,97.0,-5.0,17.72,SSW,212,4.0,7.6,2,0.00,,---,0.00,VWS V13.01,2013-06-05 18:20:00,
2013-06-05 11:25:00,98.1,-4.3,17.72,SW,220,0.0,6.3,2,0.00,,---,0.00,VWS V13.01,2013-06-05 18:25:00,
2013-06-05 11:30:00,98.4,-4.1,17.72,SE,136,3.1,4.0,2,0.00,,---,0.00,VWS V13.01,2013-06-05 18:30:00,
2013-06-05 11:35:00,98.1,-4.3,17.72,SW,234,8.7,8.7,2,0.00,,---,0.00,VWS V13.01,2013-06-05 18:35:00,
2013-06-05 11:40:00,97.9,-4.4,17.72,WNW,300,3.1,6.3,2,0.00,,---,0.00,VWS V13.01,2013-06-05 18:40:00,
2013-06-05 11:45:00,98.1,-4.3,17.72,SW,229,0.0,8.7,2,0.00,,---,0.00,VWS V13.01,2013-06-05 18:45:00,
2013-06-05 11:50:00,98.2,-4.2,17.72,West,270,7.6,8.3,2,0.00,,---,0.00,VWS V13.01,2013-06-05 18:50:00,
2013-06-05 11:55:00,98.1,-4.3,17.72,NW,309,3.6,6.3,2,0.00,,---,0.00,VWS V13.01,2013-06-05 18:55:00,
2013-06-05 12:00:00,97.2,-4.9,17.72,WNW,290,2.2,4.0,2,0.00,,---,0.00,VWS V13.01,2013-06-05 19:00:00,
2013-06-05 12:05:00,97.5,-4.6,17.72,North,355,0.0,4.5,2,0.00,,---,0.00,VWS V13.01,2013-06-05 19:05:00,
2013-06-05 12:10:00,97.9,-4.4,17.72,NW,305,4.0,8.7,2,0.00,,---,0.00,VWS V13.01,2013-06-05 19:10:00,
2013-06-05 12:15:00,97.9,-4.4,17.72,SW,220,5.8,7.6,2,0.00,,---,0.00,VWS V13.01,2013-06-05 19:15:00,
2013-06-05 12:20:00,98.6,-3.9,17.72,SW,220,0.0,2.7,2,0.00,,---,0.00,VWS V13.01,2013-06-05 19:20:00,
2013-06-05 12:25:00,98.4,-4.1,17.72,SSW,211,7.6,11.0,2,0.00,,---,0.00,VWS V13.01,2013-06-05 19:25:00,
2013-06-05 12:30:00,98.1,-4.3,17.72,WNW,294,0.0,5.8,2,0.00,,---,0.00,VWS V13.01,2013-06-05 19:30:00,
2013-06-05 12:35:00,98.6,-3.9,17.72,West,264,11.0,11.0,2,0.00,,---,0.00,VWS V13.01,2013-06-05 19:35:00,
2013-06-05 12:40:00,98.6,-3.9,17.72,South,182,5.8,6.3,2,0.00,,---,0.00,VWS V13.01,2013-06-05 19:40:00,
2013-06-05 12:45:00,99.5,-3.4,17.72,WNW,288,10.1,10.5,2,0.00,,---,0.00,VWS V13.01,2013-06-05 19:45:00,
2013-06-05 12:50:00,98.8,-3.8,17.72,NW,322,0.0,6.3,2,0.00,,---,0.00,VWS V13.01,2013-06-05 19:50:00,
2013-06-05 12:55:00,99.5,-3.4,17.72,SSW,207,0.0,7.6,2,0.00,,---,0.00,VWS V13.01,2013-06-05 19:55:00,
2013-06-05 13:00:00,100.6,-2.7,17.72,SE,142,0.0,5.4,2,0.00,,---,0.00,VWS V13.01,2013-06-05 20:00:00,
2013-06-05 13:05:00,100.9,-2.5,17.72,WSW,248,5.4,8.1,2,0.00,,---,0.00,VWS V13.01,2013-06-05 20:05:00,
2013-06-05 13:10:00,100.4,-2.8,17.72,SW,236,5.8,8.7,2,0.00,,---,0.00,VWS V13.01,2013-06-05 20:10:00,
2013-06-05 13:15:00,99.5,-3.4,17.72,West,276,5.4,7.2,2,0.00,,---,0.00,VWS V13.01,2013-06-05 20:15:00,
2013-06-05 13:20:00,100.0,-3.0,17.72,SSW,213,0.0,2.2,2,0.00,,---,0.00,VWS V13.01,2013-06-05 20:20:00,
2013-06-05 13:25:00,100.4,-2.8,17.72,West,264,8.3,11.0,2,0.00,,---,0.00,VWS V13.01,2013-06-05 20:25:00,
2013-06-05 13:30:00,101.1,-2.3,17.72,South,186,8.1,8.3,2,0.00,,---,0.00,VWS V13.01,2013-06-05 20:30:00,
2013-06-05 13:35:00,102.0,-1.8,17.72,SSE,165,7.6,7.6,2,0.00,,---,0.00,VWS V13.01,2013-06-05 20:35:00,
2013-06-05 13:40:00,102.4,-1.6,17.72,WSW,249,8.1,8.3,2,0.00,,---,0.00,VWS V13.01,2013-06-05 20:40:00,
2013-06-05 13:45:00,102.0,-1.8,17.72,NE,48,0.0,6.3,2,0.00,,---,0.00,VWS V13.01,2013-06-05 20:45:00,
2013-06-05 13:50:00,101.8,-1.9,17.72,SW,234,2.7,11.0,2,0.00,,---,0.00,VWS V13.01,2013-06-05 20:50:00,
2013-06-05 13:55:00,102.4,-1.6,17.72,SSW,204,4.5,6.3,2,0.00,,---,0.00,VWS V13.01,2013-06-05 20:55:00,
2013-06-05 14:00:00,102.9,-1.2,17.72,WSW,239,3.6,10.5,2,0.00,,---,0.00,VWS V13.01,2013-06-05 21:00:00,
2013-06-05 14:05:00,103.1,-1.1,17.72,SSW,199,11.0,11.0,2,0.00,,---,0.00,VWS V13.01,2013-06-05 21:05:00,
2013-06-05 14:10:00,102.7,-1.3,17.72,SW,224,5.4,10.1,2,0.00,,---,0.00,VWS V13.01,2013-06-05 21:10:00,
2013-06-05 14:15:00,101.5,-2.1,17.72,SW,221,5.8,11.9,2,0.00,,---,0.00,VWS V13.01,2013-06-05 21:15:00,
2013-06-05 14:20:00,100.8,-2.6,17.72,West,277,8.3,8.3,2,0.00,,---,0.00,VWS V13.01,2013-06-05 21:20:00,
2013-06-05 14:25:00,101.7,-2.0,17.72,WNW,296,6.3,6.3,2,0.00,,---,0.00,VWS V13.01,2013-06-05 21:25:00,
2013-06-05 14:30:00,100.6,-2.7,17.72,West,279,4.9,13.2,2,0.00,,---,0.00,VWS V13.01,2013-06-05 21:30:00,
2013-06-05 14:35:00,100.0,-3.0,17.72,NW,325,0.0,5.8,2,0.00,,---,0.00,VWS V13.01,2013-06-05 21:35:00,
2013-06-05 14:40:00,100.4,-2.8,17.72,WNW,296,3.6,8.7,2,0.00,,---,0.00,VWS V13.01,2013-06-05 21:40:00,
2013-06-05 14:45:00,99.5,-3.4,17.72,WNW,285,2.7,6.3,2,0.00,,---,0.00,VWS V13.01,2013-06-05 21:45:00,
2013-06-05 14:50:00,100.2,-2.9,17.72,SSW,210,0.0,11.4,2,0.00,,---,0.00,VWS V13.01,2013-06-05 21:50:00,
2013-06-05 14:55:00,100.6,-2.7,17.72,WNW,299,6.3,11.0,2,0.00,,---,0.00,VWS V13.01,2013-06-05 21:55:00,
2013-06-05 15:01:00,100.6,-2.7,17.72,West,272,3.6,5.4,2,0.00,,---,0.00,VWS V13.01,2013-06-05 22:01:00,
2013-06-05 15:06:00,99.9,-3.2,17.72,NNW,337,4.0,7.6,2,0.00,,---,0.00,VWS V13.01,2013-06-05 22:06:00,
2013-06-05 15:11:00,100.4,-2.8,17.72,WSW,258,6.3,8.7,2,0.00,,---,0.00,VWS V13.01,2013-06-05 22:11:00,
2013-06-05 15:17:00,100.8,-2.6,17.72,NNW,327,10.1,13.2,2,0.00,,---,0.00,VWS V13.01,2013-06-05 22:17:00,
2013-06-05 15:22:00,100.0,-3.0,17.72,NW,304,0.0,9.6,2,0.00,,---,0.00,VWS V13.01,2013-06-05 22:22:00,
2013-06-05 15:28:00,100.0,-3.0,17.72,WNW,286,11.0,11.0,2,0.00,,---,0.00,VWS V13.01,2013-06-05 22:28:00,
2013-06-05 15:33:00,99.9,-3.2,17.72,WNW,299,4.0,5.8,2,0.00,,---,0.00,VWS V13.01,2013-06-05 22:33:00,
2013-06-05 15:38:00,99.7,-3.3,17.72,NNE,14,3.1,6.3,2,0.00,,---,0.00,VWS V13.01,2013-06-05 22:38:00,
2013-06-05 15:43:00,99.7,-3.3,17.72,SW,225,8.7,12.3,2,0.00,,---,0.00,VWS V13.01,2013-06-05 22:43:00,
2013-06-05 15:48:00,99.9,-3.2,17.72,NW,314,3.6,9.6,2,0.00,,---,0.00,VWS V13.01,2013-06-05 22:48:00,
2013-06-05 15:53:00,100.2,-2.9,17.72,West,280,8.7,8.7,2,0.00,,---,0.00,VWS V13.01,2013-06-05 22:53:00,
2013-06-05 15:58:00,99.9,-3.2,17.72,WSW,250,11.0,11.0,2,0.00,,---,0.00,VWS V13.01,2013-06-05 22:58:00,
2013-06-05 16:03:00,99.5,-3.4,17.72,WNW,294,2.2,4.9,2,0.00,,---,0.00,VWS V13.01,2013-06-05 23:03:00,
2013-06-05 16:08:00,99.1,-3.6,17.72,WNW,284,7.6,7.6,2,0.00,,---,0.00,VWS V13.01,2013-06-05 23:08:00,
2013-06-05 16:13:00,99.1,-3.6,17.72,NW,319,5.4,5.4,2,0.00,,---,0.00,VWS V13.01,2013-06-05 23:13:00,
2013-06-05 16:18:00,99.5,-3.4,17.72,WNW,298,8.7,8.7,2,0.00,,---,0.00,VWS V13.01,2013-06-05 23:18:00,
2013-06-05 16:23:00,99.9,-3.2,17.72,West,277,4.9,8.3,2,0.00,,---,0.00,VWS V13.01,2013-06-05 23:23:00,
2013-06-05 16:28:00,100.0,-3.0,17.72,NW,319,2.7,7.2,2,0.00,,---,0.00,VWS V13.01,2013-06-05 23:28:00,
2013-06-05 16:33:00,99.7,-3.3,17.72,WNW,298,4.0,5.8,2,0.00,,---,0.00,VWS V13.01,2013-06-05 23:33:00,
2013-06-05 16:38:00,99.5,-3.4,17.72,WNW,299,4.9,8.1,2,0.00,,---,0.00,VWS V13.01,2013-06-05 23:38:00,
2013-06-05 16:43:00,99.5,-3.4,17.72,WSW,253,6.3,11.0,2,0.00,,---,0.00,VWS V13.01,2013-06-05 23:43:00,
2013-06-05 16:48:00,99.0,-3.7,17.72,NW,314,5.4,8.7,2,0.00,,---,0.00,VWS V13.01,2013-06-05 23:48:00,
2013-06-05 16:53:00,99.1,-3.6,17.72,West,280,5.8,9.6,2,0.00,,---,0.00,VWS V13.01,2013-06-05 23:53:00,
2013-06-05 16:58:00,99.1,-3.6,17.72,WNW,286,8.7,10.5,2,0.00,,---,0.00,VWS V13.01,2013-06-05 23:58:00,
2013-06-05 17:03:00,99.0,-3.7,17.72,WNW,290,5.4,8.7,2,0.00,,---,0.00,VWS V13.01,2013-06-06 00:03:00,
2013-06-05 17:08:00,99.0,-3.7,17.72,NW,317,4.0,6.3,2,0.00,,---,0.00,VWS V13.01,2013-06-06 00:08:00,
2013-06-05 17:13:00,99.1,-3.6,17.72,WNW,295,10.1,10.1,2,0.00,,---,0.00,VWS V13.01,2013-06-06 00:13:00,
2013-06-05 17:18:00,99.0,-3.7,17.72,NW,304,3.6,10.1,2,0.00,,---,0.00,VWS V13.01,2013-06-06 00:18:00,
2013-06-05 17:23:00,99.0,-3.7,17.72,NW,311,3.1,10.1,2,0.00,,---,0.00,VWS V13.01,2013-06-06 00:23:00,
2013-06-05 17:28:00,98.2,-4.2,17.72,NW,304,3.1,6.3,2,0.00,,---,0.00,VWS V13.01,2013-06-06 00:28:00,
2013-06-05 17:33:00,98.4,-4.1,17.72,West,280,3.6,8.3,2,0.00,,---,0.00,VWS V13.01,2013-06-06 00:33:00,
2013-06-05 17:38:00,98.1,-4.3,17.72,WSW,256,8.1,8.3,2,0.00,,---,0.00,VWS V13.01,2013-06-06 00:38:00,
2013-06-05 17:43:00,97.7,-4.5,17.72,West,276,5.8,10.1,2,0.00,,---,0.00,VWS V13.01,2013-06-06 00:43:00,
2013-06-05 17:48:00,97.5,-4.6,17.72,NW,307,7.6,13.2,2,0.00,,---,0.00,VWS V13.01,2013-06-06 00:48:00,
2013-06-05 17:53:00,97.5,-4.6,17.72,WSW,247,8.3,12.8,2,0.00,,---,0.00,VWS V13.01,2013-06-06 00:53:00,
2013-06-05 17:58:00,97.2,-4.9,17.72,WNW,293,5.4,6.3,2,0.00,,---,0.00,VWS V13.01,2013-06-06 00:58:00,
2013-06-05 18:03:00,96.8,-5.1,17.72,WNW,285,4.9,9.6,2,0.00,,---,0.00,VWS V13.01,2013-06-06 01:03:00,
2013-06-05 18:08:00,96.6,-5.2,17.72,NNW,332,4.0,8.1,2,0.00,,---,0.00,VWS V13.01,2013-06-06 01:08:00,
2013-06-05 18:13:00,96.3,-5.4,17.72,NW,323,4.9,7.2,2,0.00,,---,0.00,VWS V13.01,2013-06-06 01:13:00,
2013-06-05 18:18:00,96.1,-5.5,17.72,WNW,298,3.1,8.1,2,0.00,,---,0.00,VWS V13.01,2013-06-06 01:18:00,
2013-06-05 18:23:00,96.1,-5.5,17.72,WNW,299,8.1,8.3,2,0.00,,---,0.00,VWS V13.01,2013-06-06 01:23:00,
2013-06-05 18:28:00,95.7,-5.8,17.72,WNW,296,10.1,10.1,2,0.00,,---,0.00,VWS V13.01,2013-06-06 01:28:00,
2013-06-05 18:33:00,95.4,-6.0,17.72,NW,306,3.6,5.8,2,0.00,,---,0.00,VWS V13.01,2013-06-06 01:33:00,
2013-06-05 18:38:00,95.2,-6.1,17.72,WNW,298,3.6,5.8,2,0.00,,---,0.00,VWS V13.01,2013-06-06 01:38:00,
2013-06-05 18:43:00,94.8,-6.3,17.72,NW,308,5.8,8.3,2,0.00,,---,0.00,VWS V13.01,2013-06-06 01:43:00,
2013-06-05 18:48:00,94.5,-6.6,17.72,WNW,291,5.8,8.3,2,0.00,,---,0.00,VWS V13.01,2013-06-06 01:48:00,
2013-06-05 18:53:00,94.3,-6.7,17.72,NW,304,3.1,4.9,2,0.00,,---,0.00,VWS V13.01,2013-06-06 01:53:00,
2013-06-05 18:58:00,93.9,-6.9,17.72,NW,314,2.7,3.1,2,0.00,,---,0.00,VWS V13.01,2013-06-06 01:58:00,
2013-06-05 19:03:00,93.6,-7.1,17.72,WNW,303,4.9,4.9,2,0.00,,---,0.00,VWS V13.01,2013-06-06 02:03:00,
2013-06-05 19:08:00,93.2,-7.4,17.72,NW,312,0.0,4.9,2,0.00,,---,0.00,VWS V13.01,2013-06-06 02:08:00,
2013-06-05 19:13:00,92.8,-7.6,17.72,WNW,283,3.1,5.4,2,0.00,,---,0.00,VWS V13.01,2013-06-06 02:13:00,
2013-06-05 19:18:00,92.7,-7.7,17.72,NW,307,0.0,0.0,2,0.00,,---,0.00,VWS V13.01,2013-06-06 02:18:00,
2013-06-05 19:23:00,92.3,-7.9,17.72,WNW,299,4.0,4.0,2,0.00,,---,0.00,VWS V13.01,2013-06-06 02:23:00,
2013-06-05 19:28:00,92.1,-8.1,17.72,WNW,295,0.0,2.7,2,0.00,,---,0.00,VWS V13.01,2013-06-06 02:28:00,
2013-06-05 19:33:00,91.8,-8.3,17.72,NW,307,2.7,6.3,2,0.00,,---,0.00,VWS V13.01,2013-06-06 02:33:00,
2013-06-05 19:38:00,91.6,-8.4,17.72,WNW,293,2.7,3.6,2,0.00,,---,0.00,VWS V13.01,2013-06-06 02:38:00,
2013-06-05 19:43:00,91.2,-8.6,17.72,WNW,296,0.0,0.0,2,0.00,,---,0.00,VWS V13.01,2013-06-06 02:43:00,
2013-06-05 19:48:00,90.7,-9.0,17.72,WNW,296,0.0,0.0,2,0.00,,---,0.00,VWS V13.01,2013-06-06 02:48:00,
2013-06-05 19:53:00,90.1,-9.3,17.72,WNW,296,0.0,0.0,2,0.00,,---,0.00,VWS V13.01,2013-06-06 02:53:00,
2013-06-05 19:58:00,89.6,-9.6,17.72,WNW,296,0.0,0.0,2,0.00,,---,0.00,VWS V13.01,2013-06-06 02:58:00,
2013-06-05 20:03:00,89.2,-9.9,17.72,WNW,296,0.0,0.0,2,0.00,,---,0.00,VWS V13.01,2013-06-06 03:03:00,
2013-06-05 20:08:00,88.9,-10.1,17.72,WNW,296,0.0,0.0,2,0.00,,---,0.00,VWS V13.01,2013-06-06 03:08:00,
2013-06-05 20:13:00,88.2,-10.6,17.72,WNW,296,0.0,0.0,2,0.00,,---,0.00,VWS V13.01,2013-06-06 03:13:00,
2013-06-05 20:18:00,87.6,-10.9,17.72,WNW,296,0.0,0.0,2,0.00,,---,0.00,VWS V13.01,2013-06-06 03:18:00,
2013-06-05 20:23:00,87.3,-11.1,17.72,WNW,296,0.0,0.0,2,0.00,,---,0.00,VWS V13.01,2013-06-06 03:23:00,
2013-06-05 20:28:00,87.1,-11.3,17.72,WNW,296,0.0,0.0,2,0.00,,---,0.00,VWS V13.01,2013-06-06 03:28:00,
2013-06-05 20:33:00,86.5,-11.6,17.72,WNW,296,0.0,0.0,2,0.00,,---,0.00,VWS V13.01,2013-06-06 03:33:00,
2013-06-05 20:38:00,86.4,-11.7,17.72,WNW,296,0.0,0.0,2,0.00,,---,0.00,VWS V13.01,2013-06-06 03:38:00,
2013-06-05 20:43:00,86.0,-11.9,17.72,WNW,296,0.0,0.0,2,0.00,,---,0.00,VWS V13.01,2013-06-06 03:43:00,
2013-06-05 20:48:00,85.6,-12.2,17.72,WNW,296,0.0,0.0,2,0.00,,---,0.00,VWS V13.01,2013-06-06 03:48:00,
2013-06-05 20:53:00,84.9,-12.6,17.72,WNW,296,0.0,0.0,2,0.00,,---,0.00,VWS V13.01,2013-06-06 03:53:00,
2013-06-05 20:58:00,84.6,-12.9,17.72,WNW,296,0.0,0.0,2,0.00,,---,0.00,VWS V13.01,2013-06-06 03:58:00,
2013-06-05 21:01:00,84.6,-12.9,17.72,WNW,296,0.0,0.0,2,0.00,,---,0.00,VWS V13.01,2013-06-06 04:01:00,
2013-06-05 21:02:00,84.6,-12.9,17.72,WNW,296,0.0,0.0,2,0.00,,---,0.00,VWS V13.01,2013-06-06 04:02:00,
2013-06-05 21:04:00,84.6,-12.9,17.72,WNW,296,0.0,0.0,2,0.00,,---,0.00,VWS V13.01,2013-06-06 04:04:00,
2013-06-05 21:05:00,84.6,-12.9,17.72,WNW,296,0.0,0.0,2,0.00,,---,0.00,VWS V13.01,2013-06-06 04:05:00,
2013-06-05 21:11:00,84.4,-13.0,17.72,WNW,296,0.0,0.0,2,0.00,,---,0.00,VWS V13.01,2013-06-06 04:11:00,
2013-06-05 21:16:00,84.0,-13.2,17.72,WNW,296,0.0,0.0,2,0.00,,---,0.00,VWS V13.01,2013-06-06 04:16:00,
2013-06-05 21:21:00,83.5,-13.6,17.72,WNW,296,0.0,0.0,2,0.00,,---,0.00,VWS V13.01,2013-06-06 04:21:00,
2013-06-05 21:27:00,83.3,-13.7,17.72,WNW,296,0.0,0.0,2,0.00,,---,0.00,VWS V13.01,2013-06-06 04:27:00,
2013-06-05 21:32:00,83.1,-13.8,17.72,WNW,296,0.0,0.0,2,0.00,,---,0.00,VWS V13.01,2013-06-06 04:32:00,
2013-06-05 21:37:00,82.6,-14.1,17.72,WNW,296,0.0,0.0,2,0.00,,---,0.00,VWS V13.01,2013-06-06 04:37:00,
2013-06-05 21:42:00,82.0,-14.5,17.72,WNW,296,0.0,0.0,2,0.00,,---,0.00,VWS V13.01,2013-06-06 04:42:00,
2013-06-05 21:47:00,81.5,-14.8,17.72,WNW,296,0.0,0.0,2,0.00,,---,0.00,VWS V13.01,2013-06-06 04:47:00,
2013-06-05 21:52:00,81.0,-15.2,17.72,WNW,296,0.0,0.0,2,0.00,,---,0.00,VWS V13.01,2013-06-06 04:52:00,
2013-06-05 21:57:00,80.4,-15.5,17.72,WNW,296,0.0,0.0,2,0.00,,---,0.00,VWS V13.01,2013-06-06 04:57:00,
2013-06-05 22:02:00,80.1,-15.8,17.72,WNW,296,0.0,0.0,2,0.00,,---,0.00,VWS V13.01,2013-06-06 05:02:00,
2013-06-05 22:07:00,79.9,-15.9,17.72,WNW,296,0.0,0.0,2,0.00,,---,0.00,VWS V13.01,2013-06-06 05:07:00,
2013-06-05 22:12:00,79.7,-16.0,17.72,WNW,296,0.0,0.0,2,0.00,,---,0.00,VWS V13.01,2013-06-06 05:12:00,
2013-06-05 22:17:00,79.5,-16.1,17.72,WNW,296,0.0,0.0,2,0.00,,---,0.00,VWS V13.01,2013-06-06 05:17:00,
2013-06-05 22:22:00,79.3,-16.2,17.72,WNW,296,0.0,0.0,2,0.00,,---,0.00,VWS V13.01,2013-06-06 05:22:00,
2013-06-05 22:27:00,79.2,-16.3,17.72,WNW,296,0.0,0.0,2,0.00,,---,0.00,VWS V13.01,2013-06-06 05:27:00,
2013-06-05 22:32:00,78.8,-16.6,17.72,WNW,296,0.0,0.0,2,0.00,,---,0.00,VWS V13.01,2013-06-06 05:32:00,
2013-06-05 22:37:00,78.6,-16.7,17.72,WNW,296,0.0,0.0,2,0.00,,---,0.00,VWS V13.01,2013-06-06 05:37:00,
2013-06-05 22:42:00,78.3,-16.9,17.72,WNW,296,0.0,0.0,2,0.00,,---,0.00,VWS V13.01,2013-06-06 05:42:00,
2013-06-05 22:47:00,78.1,-17.0,17.72,NW,314,0.0,0.0,2,0.00,,---,0.00,VWS V13.01,2013-06-06 05:47:00,
2013-06-05 22:52:00,77.7,-17.3,17.72,NW,314,0.0,0.0,2,0.00,,---,0.00,VWS V13.01,2013-06-06 05:52:00,
2013-06-05 22:57:00,77.4,-17.5,17.72,NW,314,0.0,0.0,2,0.00,,---,0.00,VWS V13.01,2013-06-06 05:57:00,
2013-06-05 23:02:00,77.2,-17.6,17.72,NW,315,0.0,0.0,2,0.00,,---,0.00,VWS V13.01,2013-06-06 06:02:00,
2013-06-05 23:07:00,76.8,-17.8,17.72,NW,315,0.0,0.0,2,0.00,,---,0.00,VWS V13.01,2013-06-06 06:07:00,
2013-06-05 23:12:00,76.6,-18.0,17.72,NW,314,0.0,0.0,2,0.00,,---,0.00,VWS V13.01,2013-06-06 06:12:00,
2013-06-05 23:17:00,76.5,-18.1,17.72,NW,313,0.0,0.0,2,0.00,,---,0.00,VWS V13.01,2013-06-06 06:17:00,
2013-06-05 23:22:00,76.3,-18.2,17.72,NW,313,0.0,0.0,2,0.00,,---,0.00,VWS V13.01,2013-06-06 06:22:00,
2013-06-05 23:27:00,76.1,-18.3,17.72,NW,313,0.0,0.0,2,0.00,,---,0.00,VWS V13.01,2013-06-06 06:27:00,
2013-06-05 23:32:00,75.9,-18.4,17.72,NW,314,0.0,0.0,2,0.00,,---,0.00,VWS V13.01,2013-06-06 06:32:00,
2013-06-05 23:37:00,75.7,-18.5,17.72,NW,314,0.0,0.0,2,0.00,,---,0.00,VWS V13.01,2013-06-06 06:37:00,
2013-06-05 23:42:00,75.6,-18.6,17.72,NW,314,0.0,0.0,2,0.00,,---,0.00,VWS V13.01,2013-06-06 06:42:00,
2013-06-05 23:47:00,75.2,-18.9,17.72,NW,314,0.0,0.0,2,0.00,,---,0.00,VWS V13.01,2013-06-06 06:47:00,
2013-06-05 23:52:00,74.8,-19.1,17.72,NW,314,0.0,0.0,2,0.00,,---,0.00,VWS V13.01,2013-06-06 06:52:00,
2013-06-05 23:57:00,74.8,-19.1,17.72,NW,314,0.0,0.0,2,0.00,,---,0.00,VWS V13.01,2013-06-06 06:57:00,